New Bern, NC

6:12 AM EDT on September 26, 2017 (GMT -0400)
Craven County Regional

Weather History for KEWN - October, 2011

Change the Weather History Date:

Thursday, October 13, 2011

  Actual Average Record
Temperature  
Mean Temperature 74 °F 65 °F  
Max Temperature 82 °F 76 °F 89 °F (1990)
Min Temperature 66 °F 55 °F 38 °F (1988)
Degree Days  
Heating Degree Days 0 3  
Month to date heating degree days 30 24  
Since 1 July heating degree days 31 31  
Cooling Degree Days 9 3  
Month to date cooling degree days 32 51  
Year to date cooling degree days 2165 1854  
Growing Degree Days 24 (Base 50)    
Moisture  
Dew Point 69 °F    
Average Humidity 82    
Maximum Humidity 100    
Minimum Humidity 63    
Precipitation  
Precipitation 0.01 in 0.10 in 1.54 in (1977)
Month to date precipitation 0.50 1.56  
Year to date precipitation 35.29 44.25  
Snow  
Snow 0.00 in - - ()
Month to date snowfall 0.0  
Since 1 July snowfall 0.0  
Snow Depth 0.00 in    
Sea Level Pressure  
Sea Level Pressure 29.73 in    
Wind  
Wind Speed 7 mph (South)    
Max Wind Speed 17 mph    
Max Gust Speed 23 mph    
Visibility 10 miles    
Events      
T = Trace of Precipitation, MM = Missing Value Source: NWS Daily Summary

Daily Weather History Graph

Daily Weather History Graph

Search for Another Location

Airport or City:

Trip Planner

Search our weather history database for the weather conditions in past years. The results will help you decide how hot, cold, wet, or windy it might be!

Date:

Astronomy

Oct. 13, 2011 Rise Set
Actual Time 7:12 AM EDT 6:36 PM EDT
Civil Twilight 6:46 AM EDT 7:01 PM EDT
Nautical Twilight 6:17 AM EDT 7:30 PM EDT
Astronomical Twilight 5:48 AM EDT 8:00 PM EDT
Moon 7:17 PM EDT (10/13) 8:36 AM EDT (10/13)
Length of Visible Light 12h 14m
Length of Day
11h 23m
Full, 98% of the Moon is Illuminated
Oct 13
Full
Oct 19
Last Quarter
Oct 26
New
Nov 2
First Quarter
Nov 10
Full

Hourly Weather History & Observations

Time (EDT) Temp. Heat Index Dew Point Humidity Pressure Visibility Wind Dir Wind Speed Gust Speed Precip Events Conditions
12:24 AM 71.6 °F - 71.6 °F 100% 29.81 in 10.0 mi South 6.9 mph - 0.00 in   Mostly Cloudy
12:54 AM 72.0 °F - 70.0 °F 93% 29.81 in 10.0 mi South 8.1 mph - 0.00 in   Clear
1:54 AM 70.0 °F - 69.1 °F 97% 29.79 in 10.0 mi SSW 5.8 mph - N/A   Clear
2:54 AM 71.1 °F - 69.1 °F 93% 29.78 in 10.0 mi South 5.8 mph - 0.01 in   Clear
3:54 AM 70.0 °F - 69.1 °F 97% 29.78 in 10.0 mi SSW 4.6 mph - N/A   Clear
4:54 AM 70.0 °F - 69.1 °F 97% 29.76 in 10.0 mi SSW 4.6 mph - N/A   Clear
5:37 AM 69.8 °F - 69.8 °F 100% 29.77 in 10.0 mi South 5.8 mph - N/A   Partly Cloudy
5:54 AM 70.0 °F - 69.1 °F 97% 29.78 in 8.0 mi South 4.6 mph - N/A   Scattered Clouds
6:02 AM 69.8 °F - 69.8 °F 100% 29.78 in 8.0 mi South 4.6 mph - N/A   Mostly Cloudy
6:13 AM 69.8 °F - 69.8 °F 100% 29.78 in 9.0 mi South 4.6 mph - N/A   Scattered Clouds
6:54 AM 70.0 °F - 69.1 °F 97% 29.77 in 10.0 mi South 5.8 mph - N/A   Clear
7:54 AM 71.1 °F - 70.0 °F 96% 29.77 in 10.0 mi SSW 3.5 mph - N/A   Scattered Clouds
8:54 AM 73.9 °F - 72.0 °F 93% 29.78 in 10.0 mi South 5.8 mph - N/A   Clear
9:54 AM 77.0 °F - 71.6 °F 83% 29.77 in - SSW 6.9 mph - N/A   Partly Cloudy
10:54 AM 78.1 °F - 71.1 °F 79% 29.76 in 10.0 mi SSW 8.1 mph - N/A   Overcast
11:54 AM 78.1 °F - 70.0 °F 76% 29.75 in 10.0 mi SSW 9.2 mph - N/A   Mostly Cloudy
12:54 PM 77.0 °F - 70.0 °F 79% 29.73 in 10.0 mi SSW 8.1 mph - N/A   Scattered Clouds
1:36 PM 80.6 °F 84.6 °F 71.6 °F 74% 29.70 in 10.0 mi Variable 6.9 mph - 0.00 in   Mostly Cloudy
1:54 PM 80.1 °F 83.2 °F 70.0 °F 71% 29.69 in 10.0 mi South 8.1 mph 17.3 mph 0.00 in   Overcast
3:54 PM 80.1 °F 82.9 °F 69.1 °F 69% 29.66 in 10.0 mi South 11.5 mph 19.6 mph N/A   Mostly Cloudy
4:54 PM 79.0 °F - 70.0 °F 74% 29.65 in 10.0 mi South 12.7 mph 20.7 mph N/A   Scattered Clouds
5:46 PM 77.0 °F - 69.8 °F 78% 29.64 in 10.0 mi South 9.2 mph - N/A   Mostly Cloudy
5:54 PM 77.0 °F - 70.0 °F 79% 29.65 in 10.0 mi South 11.5 mph - N/A   Mostly Cloudy
6:19 PM 75.2 °F - 69.8 °F 83% 29.65 in 10.0 mi South 9.2 mph 18.4 mph N/A   Scattered Clouds
6:54 PM 73.9 °F - 68.0 °F 82% 29.65 in 10.0 mi South 11.5 mph - N/A   Clear
7:54 PM 72.0 °F - 64.9 °F 78% 29.67 in 10.0 mi South 9.2 mph - N/A   Clear
8:54 PM 71.1 °F - 66.0 °F 84% 29.68 in 10.0 mi South 6.9 mph - N/A   Clear
9:54 PM 69.8 °F - 66.2 °F 88% 29.68 in 10.0 mi SSW 5.8 mph - N/A   Clear
10:54 PM 69.1 °F - 66.0 °F 90% 29.68 in 10.0 mi SSW 4.6 mph - N/A   Clear
11:54 PM 66.9 °F - 66.0 °F 97% 29.68 in 10.0 mi SSW 3.5 mph - N/A   Clear